• In Uzbekistan
  • List of Countries
  • For 7 days
  • Water Temperature
  • Satellite Maps
  • Weather Map
  • Weather Widgets
  • user-avatar
    Login

    Hourly Weather Santa Fe

    Today, 22 January, Sunday

    Time Temperature Precipitation Wind Pressure Humidity
    00:00 +27°C° 0 mm 4 mps 757 mmHg 45%
    01:00 +27°C° 0 mm 4 mps 757 mmHg 46%
    02:00 +26°C° 0 mm 4 mps 757 mmHg 46%
    03:00 +26°C° 0 mm 3 mps 757 mmHg 47%
    04:00 +25°C° 0 mm 3 mps 757 mmHg 48%
    05:00 +25°C° 0 mm 3 mps 757 mmHg 49%
    06:00 +26°C° 0 mm 3 mps 757 mmHg 47%
    07:00 +28°C° 0 mm 3 mps 757 mmHg 44%
    08:00 +30°C° 0 mm 4 mps 758 mmHg 41%
    09:00 +33°C° 0 mm 3 mps 757 mmHg 36%
    10:00 +35°C° 0 mm 3 mps 757 mmHg 32%
    11:00 +38°C° 0 mm 3 mps 757 mmHg 27%
    12:00 +38°C° 0 mm 3 mps 757 mmHg 24%
    13:00 +40°C° 0 mm 4 mps 756 mmHg 22%
    14:00 +41°C° 0 mm 4 mps 755 mmHg 19%
    15:00 +41°C° 0 mm 4 mps 755 mmHg 20%
    16:00 +40°C° 0 mm 5 mps 755 mmHg 21%
    17:00 +40°C° 0 mm 6 mps 754 mmHg 22%
    18:00 +37°C° 0 mm 5 mps 754 mmHg 27%
    19:00 +34°C° 0 mm 5 mps 755 mmHg 32%
    20:00 +32°C° 0 mm 5 mps 755 mmHg 37%
    21:00 +30°C° 0 mm 5 mps 755 mmHg 39%
    22:00 +29°C° 0 mm 5 mps 756 mmHg 40%
    23:00 +28°C° 0 mm 5 mps 756 mmHg 41%

    Tomorrow, 23 January, Monday

    Time Temperature Precipitation Wind Pressure Humidity
    00:00 +28°C° 0 mm 4 mps 756 mmHg 42%
    01:00 +27°C° 0 mm 4 mps 756 mmHg 44%
    02:00 +26°C° 0 mm 3 mps 756 mmHg 46%
    03:00 +25°C° 0 mm 3 mps 756 mmHg 48%
    04:00 +25°C° 0 mm 3 mps 756 mmHg 50%
    05:00 +24°C° 0 mm 3 mps 756 mmHg 53%
    06:00 +26°C° 0 mm 3 mps 756 mmHg 50%
    07:00 +28°C° 0 mm 4 mps 757 mmHg 48%
    08:00 +29°C° 0 mm 4 mps 757 mmHg 46%
    09:00 +31°C° 0 mm 3 mps 757 mmHg 41%
    10:00 +35°C° 0 mm 3 mps 757 mmHg 35%
    11:00 +37°C° 0 mm 2 mps 756 mmHg 30%
    12:00 +38°C° 0 mm 2 mps 756 mmHg 27%
    13:00 +39°C° 0 mm 3 mps 755 mmHg 23%
    14:00 +40°C° 0 mm 3 mps 754 mmHg 20%
    15:00 +40°C° 0 mm 3 mps 754 mmHg 21%
    16:00 +40°C° 0 mm 4 mps 753 mmHg 21%
    17:00 +40°C° 0 mm 4 mps 753 mmHg 21%
    18:00 +37°C° 0 mm 4 mps 753 mmHg 26%
    19:00 +34°C° 0 mm 4 mps 753 mmHg 31%
    20:00 +32°C° 0 mm 4 mps 753 mmHg 37%
    21:00 +30°C° 0 mm 4 mps 753 mmHg 39%
    22:00 +29°C° 0 mm 4 mps 753 mmHg 40%
    23:00 +29°C° 0 mm 4 mps 754 mmHg 42%

    Day after tomorrow, 24 January, Tuesday

    Time Temperature Precipitation Wind Pressure Humidity
    00:00 +28°C° 0 mm 4 mps 753 mmHg 43%
    01:00 +28°C° 0 mm 4 mps 753 mmHg 44%
    02:00 +27°C° 0 mm 4 mps 752 mmHg 44%
    03:00 +27°C° 0 mm 3 mps 752 mmHg 46%
    04:00 +26°C° 0 mm 3 mps 752 mmHg 48%
    05:00 +26°C° 0 mm 3 mps 752 mmHg 49%
    06:00 +28°C° 0 mm 3 mps 753 mmHg 47%
    07:00 +30°C° 0 mm 3 mps 753 mmHg 44%
    08:00 +33°C° 0 mm 3 mps 754 mmHg 41%
    09:00 +35°C° 0 mm 4 mps 754 mmHg 35%
    10:00 +37°C° 0 mm 4 mps 754 mmHg 30%
    11:00 +41°C° 0 mm 5 mps 754 mmHg 24%
    12:00 +40°C° 0 mm 5 mps 754 mmHg 24%
    13:00 +40°C° 0 mm 5 mps 753 mmHg 24%
    14:00 +40°C° 0 mm 5 mps 753 mmHg 24%
    15:00 +39°C° 0 mm 6 mps 753 mmHg 29%
    16:00 +38°C° 0 mm 6 mps 753 mmHg 34%
    17:00 +35°C° 0 mm 7 mps 753 mmHg 39%
    18:00 +33°C° 0 mm 6 mps 753 mmHg 46%
    19:00 +30°C° 0 mm 4 mps 754 mmHg 52%
    20:00 +28°C° 0 mm 2 mps 754 mmHg 59%
    21:00 +28°C° 0.1 mm 3 mps 755 mmHg 59%
    22:00 +28°C° 0.1 mm 3 mps 756 mmHg 59%
    23:00 +28°C° 0.1 mm 3 mps 757 mmHg 59%

    25 January, Wednesday

    Time Temperature Precipitation Wind Pressure Humidity
    00:00 +26°C° 0 mm 5 mps 757 mmHg 64%
    01:00 +24°C° 0 mm 6 mps 757 mmHg 69%
    02:00 +23°C° 0 mm 8 mps 757 mmHg 74%
    03:00 +22°C° 0 mm 7 mps 758 mmHg 75%
    04:00 +21°C° 0 mm 7 mps 759 mmHg 77%
    05:00 +20°C° 0 mm 6 mps 759 mmHg 79%
    06:00 +20°C° 0 mm 6 mps 760 mmHg 74%
    07:00 +21°C° 0 mm 6 mps 760 mmHg 69%
    08:00 +21°C° 0 mm 6 mps 761 mmHg 64%
    09:00 +23°C° 0 mm 6 mps 761 mmHg 54%
    10:00 +26°C° 0 mm 6 mps 761 mmHg 44%
    11:00 +29°C° 0 mm 6 mps 762 mmHg 34%
    12:00 +29°C° 0 mm 6 mps 761 mmHg 30%
    13:00 +30°C° 0 mm 6 mps 760 mmHg 26%
    14:00 +32°C° 0 mm 6 mps 760 mmHg 23%
    15:00 +32°C° 0 mm 6 mps 759 mmHg 23%
    16:00 +32°C° 0 mm 6 mps 759 mmHg 24%
    17:00 +30°C° 0 mm 6 mps 758 mmHg 24%
    18:00 +28°C° 0 mm 5 mps 759 mmHg 29%
    19:00 +26°C° 0 mm 4 mps 759 mmHg 34%
    20:00 +23°C° 0 mm 4 mps 759 mmHg 39%
    21:00 +22°C° 0 mm 3 mps 760 mmHg 42%
    22:00 +21°C° 0 mm 3 mps 760 mmHg 45%
    23:00 +20°C° 0 mm 3 mps 760 mmHg 48%

    26 January, Thursday

    Time Temperature Precipitation Wind Pressure Humidity
    00:00 +19°C° 0 mm 3 mps 760 mmHg 50%
    01:00 +18°C° 0 mm 2 mps 760 mmHg 53%
    02:00 +18°C° 0 mm 2 mps 760 mmHg 56%
    03:00 +17°C° 0 mm 2 mps 760 mmHg 61%
    04:00 +17°C° 0 mm 2 mps 760 mmHg 66%
    05:00 +16°C° 0 mm 2 mps 760 mmHg 70%
    06:00 +18°C° 0 mm 2 mps 761 mmHg 63%
    07:00 +21°C° 0 mm 2 mps 761 mmHg 56%
    08:00 +24°C° 0 mm 2 mps 761 mmHg 49%
    09:00 +26°C° 0 mm 2 mps 761 mmHg 42%
    10:00 +28°C° 0 mm 2 mps 761 mmHg 34%
    11:00 +30°C° 0 mm 2 mps 761 mmHg 27%
    12:00 +31°C° 0 mm 2 mps 761 mmHg 25%
    13:00 +32°C° 0 mm 2 mps 760 mmHg 23%
    14:00 +35°C° 0 mm 2 mps 759 mmHg 20%
    15:00 +35°C° 0 mm 3 mps 759 mmHg 20%
    16:00 +35°C° 0 mm 3 mps 759 mmHg 20%
    17:00 +35°C° 0 mm 3 mps 758 mmHg 20%
    18:00 +31°C° 0 mm 3 mps 759 mmHg 25%
    19:00 +28°C° 0 mm 3 mps 759 mmHg 30%
    20:00 +25°C° 0 mm 2 mps 759 mmHg 35%
    21:00 +25°C° 0 mm 2 mps 759 mmHg 37%
    22:00 +24°C° 0 mm 2 mps 760 mmHg 39%
    23:00 +23°C° 0 mm 2 mps 760 mmHg 42%

    27 January, Friday

    Time Temperature Precipitation Wind Pressure Humidity
    00:00 +23°C° 0 mm 2 mps 760 mmHg 44%
    01:00 +21°C° 0 mm 3 mps 760 mmHg 46%
    02:00 +21°C° 0 mm 3 mps 760 mmHg 48%
    03:00 +20°C° 0 mm 3 mps 760 mmHg 51%
    04:00 +20°C° 0 mm 3 mps 760 mmHg 53%
    05:00 +19°C° 0 mm 2 mps 760 mmHg 56%
    06:00 +23°C° 0 mm 2 mps 761 mmHg 50%
    07:00 +25°C° 0 mm 2 mps 761 mmHg 44%
    08:00 +27°C° 0 mm 2 mps 762 mmHg 37%
    09:00 +30°C° 0 mm 2 mps 761 mmHg 32%
    10:00 +32°C° 0 mm 2 mps 761 mmHg 26%
    11:00 +35°C° 0 mm 2 mps 761 mmHg 20%
    12:00 +37°C° 0 mm 2 mps 760 mmHg 18%
    13:00 +38°C° 0 mm 3 mps 760 mmHg 16%
    14:00 +39°C° 0 mm 3 mps 759 mmHg 14%
    15:00 +39°C° 0 mm 3 mps 758 mmHg 14%
    16:00 +40°C° 0 mm 4 mps 758 mmHg 14%
    17:00 +40°C° 0 mm 4 mps 757 mmHg 14%
    18:00 +36°C° 0 mm 4 mps 758 mmHg 19%
    19:00 +34°C° 0 mm 4 mps 758 mmHg 23%
    20:00 +30°C° 0 mm 4 mps 758 mmHg 27%
    21:00 +29°C° 0 mm 4 mps 758 mmHg 30%
    22:00 +28°C° 0 mm 5 mps 759 mmHg 33%
    23:00 +27°C° 0 mm 5 mps 759 mmHg 36%
    Show more